TimeCST,TemperatureF,Dew PointF,Humidity,Sea Level PressureIn,VisibilityMPH,Wind Direction,Wind SpeedMPH,Gust SpeedMPH,PrecipitationIn,Events,Conditions,WindDirDegrees,DateUTC
12:15 AM,23.0,19.4,86,29.74,10.0,Calm,Calm,-,N/A,Snow,Light Snow,0,2012-12-11 06:15:00
12:35 AM,23.0,19.4,86,29.74,10.0,Calm,Calm,-,N/A,Snow,Light Snow,0,2012-12-11 06:35:00
12:55 AM,23.0,19.4,86,29.74,10.0,WSW,3.5,-,N/A,,Overcast,240,2012-12-11 06:55:00
1:15 AM,23.0,19.4,86,29.74,10.0,West,4.6,-,N/A,Snow,Light Snow,270,2012-12-11 07:15:00
1:35 AM,23.0,19.4,86,29.75,10.0,WNW,5.8,-,N/A,,Overcast,290,2012-12-11 07:35:00
1:55 AM,24.8,21.2,86,29.75,10.0,NW,11.5,-,N/A,,Overcast,320,2012-12-11 07:55:00
2:15 AM,24.8,17.6,74,29.75,10.0,NNW,13.8,23.0,N/A,,Overcast,330,2012-12-11 08:15:00
2:35 AM,24.8,17.6,74,29.75,10.0,WNW,9.2,-,N/A,,Overcast,300,2012-12-11 08:35:00
2:55 AM,23.0,17.6,80,29.76,10.0,NNW,13.8,-,N/A,,Overcast,330,2012-12-11 08:55:00
3:15 AM,21.2,15.8,80,29.77,10.0,NNW,17.3,-,N/A,,Mostly Cloudy,330,2012-12-11 09:15:00
3:35 AM,19.4,14.0,80,29.77,10.0,NNW,13.8,-,N/A,,Partly Cloudy,330,2012-12-11 09:35:00
3:55 AM,19.4,14.0,80,29.77,10.0,NNW,12.7,-,N/A,,Mostly Cloudy,330,2012-12-11 09:55:00
4:15 AM,21.2,14.0,74,29.77,10.0,NNW,12.7,16.1,N/A,,Overcast,330,2012-12-11 10:15:00
4:35 AM,19.4,12.2,74,29.77,10.0,NNW,9.2,-,N/A,,Overcast,330,2012-12-11 10:35:00
4:55 AM,17.6,10.4,73,29.77,10.0,NNW,3.5,-,N/A,,Overcast,340,2012-12-11 10:55:00
5:15 AM,17.6,12.2,79,29.77,10.0,Calm,Calm,-,N/A,,Overcast,0,2012-12-11 11:15:00
5:35 AM,19.4,14.0,80,29.78,10.0,NNW,8.1,-,N/A,,Overcast,330,2012-12-11 11:35:00
5:55 AM,19.4,14.0,80,29.79,10.0,NNW,11.5,-,N/A,Snow,Light Snow,340,2012-12-11 11:55:00
6:15 AM,17.6,10.4,73,29.79,10.0,North,8.1,-,N/A,Snow,Light Snow,360,2012-12-11 12:15:00
6:35 AM,15.8,10.4,79,29.80,10.0,North,6.9,-,N/A,Snow,Light Snow,360,2012-12-11 12:35:00
6:55 AM,15.8,10.4,79,29.80,10.0,North,8.1,-,N/A,Snow,Light Snow,360,2012-12-11 12:55:00
7:15 AM,15.8,10.4,79,29.80,10.0,North,10.4,-,N/A,,Overcast,360,2012-12-11 13:15:00
7:35 AM,15.8,10.4,79,29.81,10.0,North,6.9,-,N/A,,Overcast,350,2012-12-11 13:35:00
7:55 AM,15.8,8.6,73,29.80,10.0,NNE,4.6,-,N/A,,Overcast,30,2012-12-11 13:55:00
8:15 AM,14.0,8.6,79,29.80,9.0,NNE,5.8,-,N/A,Snow,Light Snow,30,2012-12-11 14:15:00
8:35 AM,14.0,8.6,79,29.80,7.0,NE,5.8,-,N/A,Snow,Light Snow,40,2012-12-11 14:35:00
8:55 AM,14.0,8.6,79,29.80,10.0,NE,5.8,-,N/A,Snow,Light Snow,50,2012-12-11 14:55:00
9:15 AM,14.0,8.6,79,29.80,10.0,NNE,4.6,-,N/A,,Overcast,30,2012-12-11 15:15:00
9:35 AM,14.0,6.8,73,29.81,10.0,NNE,5.8,-,N/A,Snow,Light Snow,30,2012-12-11 15:35:00
9:55 AM,14.0,8.6,79,29.81,10.0,NE,4.6,-,N/A,Snow,Light Snow,40,2012-12-11 15:55:00
10:15 AM,14.0,8.6,79,29.81,8.0,ENE,4.6,-,N/A,Snow,Light Snow,60,2012-12-11 16:15:00
10:35 AM,14.0,8.6,79,29.81,10.0,East,4.6,-,N/A,,Overcast,90,2012-12-11 16:35:00
10:55 AM,14.0,8.6,79,29.81,10.0,East,4.6,-,N/A,,Overcast,80,2012-12-11 16:55:00
11:15 AM,14.0,8.6,79,29.80,10.0,ENE,4.6,-,N/A,,Overcast,70,2012-12-11 17:15:00
11:35 AM,15.8,8.6,73,29.79,10.0,ESE,5.8,-,N/A,,Overcast,110,2012-12-11 17:35:00
11:55 AM,15.8,8.6,73,29.79,10.0,ESE,6.9,-,N/A,,Overcast,110,2012-12-11 17:55:00
12:15 PM,15.8,8.6,73,29.78,10.0,SE,6.9,-,N/A,,Overcast,140,2012-12-11 18:15:00
12:35 PM,15.8,8.6,73,29.77,10.0,SSE,6.9,-,N/A,,Mostly Cloudy,150,2012-12-11 18:35:00
12:55 PM,17.6,10.4,73,29.76,10.0,SSE,6.9,-,N/A,,Mostly Cloudy,150,2012-12-11 18:55:00
1:15 PM,17.6,10.4,73,29.75,10.0,South,4.6,-,N/A,,Overcast,170,2012-12-11 19:15:00
1:35 PM,17.6,10.4,73,29.75,10.0,SE,4.6,-,N/A,,Overcast,130,2012-12-11 19:35:00
1:55 PM,17.6,12.2,79,29.74,10.0,ESE,4.6,-,N/A,,Overcast,110,2012-12-11 19:55:00
2:15 PM,17.6,12.2,79,29.73,10.0,ESE,5.8,-,N/A,,Overcast,120,2012-12-11 20:15:00
2:35 PM,19.4,14.0,80,29.71,10.0,SE,5.8,-,N/A,,Overcast,140,2012-12-11 20:35:00
2:55 PM,21.2,15.8,80,29.70,10.0,SSE,6.9,-,N/A,,Overcast,150,2012-12-11 20:55:00
3:15 PM,19.4,14.0,80,29.69,10.0,SE,9.2,-,N/A,,Overcast,140,2012-12-11 21:15:00
3:35 PM,19.4,14.0,80,29.69,10.0,SSE,13.8,-,N/A,,Overcast,160,2012-12-11 21:35:00
3:55 PM,19.4,14.0,80,29.68,10.0,SE,12.7,-,N/A,,Mostly Cloudy,140,2012-12-11 21:55:00
4:15 PM,19.4,14.0,80,29.67,10.0,SSE,10.4,-,N/A,,Partly Cloudy,150,2012-12-11 22:15:00
4:35 PM,19.4,14.0,80,29.68,10.0,SE,5.8,-,N/A,,Clear,140,2012-12-11 22:35:00
4:55 PM,19.4,14.0,80,29.67,10.0,SE,5.8,-,N/A,,Clear,140,2012-12-11 22:55:00
5:15 PM,19.4,14.0,80,29.66,10.0,East,4.6,-,N/A,,Mostly Cloudy,90,2012-12-11 23:15:00
5:35 PM,19.4,14.0,80,29.65,10.0,ESE,8.1,-,N/A,,Overcast,120,2012-12-11 23:35:00
5:55 PM,19.4,15.8,86,29.65,10.0,ESE,6.9,-,N/A,,Overcast,120,2012-12-11 23:55:00
6:15 PM,21.2,15.8,80,29.65,10.0,ESE,5.8,-,N/A,,Overcast,110,2012-12-12 00:15:00
6:35 PM,21.2,15.8,80,29.64,10.0,SE,8.1,-,N/A,,Overcast,130,2012-12-12 00:35:00
6:55 PM,21.2,15.8,80,29.63,10.0,SE,5.8,-,N/A,,Overcast,130,2012-12-12 00:55:00
7:15 PM,21.2,15.8,80,29.63,10.0,SE,5.8,-,N/A,,Overcast,130,2012-12-12 01:15:00
7:35 PM,21.2,15.8,80,29.62,10.0,SE,13.8,18.4,N/A,,Overcast,130,2012-12-12 01:35:00
7:55 PM,23.0,15.8,74,29.62,10.0,South,4.6,-,N/A,,Overcast,180,2012-12-12 01:55:00
8:15 PM,23.0,15.8,74,29.61,10.0,South,5.8,-,N/A,,Overcast,170,2012-12-12 02:15:00
8:35 PM,23.0,17.6,80,29.61,10.0,ESE,3.5,-,N/A,,Overcast,120,2012-12-12 02:35:00
8:55 PM,24.8,17.6,74,29.60,10.0,South,8.1,-,N/A,,Overcast,170,2012-12-12 02:55:00
9:15 PM,24.8,17.6,74,29.59,10.0,SSE,4.6,-,N/A,,Overcast,150,2012-12-12 03:15:00
9:35 PM,24.8,19.4,80,29.58,5.0,North,3.5,-,N/A,,Mostly Cloudy,360,2012-12-12 03:35:00
9:55 PM,24.8,19.4,80,29.57,7.0,ENE,3.5,-,N/A,Snow,Light Snow,60,2012-12-12 03:55:00
10:15 PM,26.6,19.4,74,29.55,10.0,South,11.5,-,N/A,,Overcast,180,2012-12-12 04:15:00
10:35 PM,26.6,19.4,74,29.54,10.0,South,16.1,-,N/A,,Overcast,170,2012-12-12 04:35:00
10:55 PM,26.6,19.4,74,29.53,10.0,South,18.4,-,N/A,,Overcast,170,2012-12-12 04:55:00
11:15 PM,26.6,19.4,74,29.53,10.0,SSW,8.1,-,N/A,,Overcast,200,2012-12-12 05:15:00
11:35 PM,26.6,19.4,74,29.52,10.0,South,19.6,26.5,N/A,,Overcast,170,2012-12-12 05:35:00
11:55 PM,28.4,19.4,69,29.52,10.0,South,18.4,-,N/A,,Overcast,180,2012-12-12 05:55:00